一网星座-0115星 (ONEWEB-0115 )

导读 | 星芒AI

ONEWEB-0115 是 OneWeb 卫星星座计划中的一颗低轨通信卫星,旨在为全球提供高速互联网服务。该卫星采用标准化设计,由空中客车防务与航天公司制造,于2022年发射入轨。作为 OneWeb 计划部署的数千颗卫星之一,它运行在约1200公里高度的近极地轨道上,支持偏远和农村地区的宽带接入。该项目由多个国际投资者支持,致力于缩小全球数字鸿沟,提升全球通信基础设施水平。

基本信息
目录编号:
48042
目录名称:
ONEWEB-0115
国际标识:
2021-025A
轨道中心:
EARTH
卫星名称:
一网星座-0115星
卫星全名:
一网星座-0115星 (ONEWEB-0115 )
卫星状态:
在轨 (已飞行1680 天)
发射日期:
2021-03-25 UTC
国别 :
英国 (GB)
星等 :
--
轨道信息
数据来源 国际轨道数据 AOE轨道数据
星历时间 2025-10-30T05:22:48+0800
8小时前
查看轨道信息
2025-10-30T03:00:00+0800
10小时前
查看轨道信息
半长轴 7587.912km 7587.899km
偏心率 0.0001818 0.0001913
轨道倾角 87.904° 87.904°
近地点辐角 100.373° 103.205°
升交点赤经 5.984° 6.003°
平近点角 259.760° 148.286°
近地点 1208.397km 1208.312km
远地点 1211.157km 1211.216km
周期 109.633分钟 109.633分钟
每日圈数 13.134677 13.13471
详细信息
平衡模式:
三轴稳定
覆盖范围:
全球
运营商:
一网卫星公司
运营商所在国:
英国
制造商(研发单位):
一网卫星公司
制造商所在国:
英国
使用方式:
暂无
卫星简介
OneWeb卫星网络由648颗重约125公斤的微型卫星组成,运行在1200公里的轨道上。 每颗卫星都能够提供至少每秒8千兆位的吞吐量,以使用其高吞吐量的Ku频段有效载荷为家庭和移动平台提供互联网接入。该卫星仍在工作。
2D轨道图
3D轨道图
轨道高度分析图
轨道倾角分析图
轨道综合分析图
查看轨道综合分析图